STARLINK-3327 (50819 NORAD) Tracking and Keplerian Element Data

This shows tracking and keplerian element data for the satellite.

Feedback or suggestion? Click here.




ElementValue
Catalog50819
NameSTARLINK-3327
Epoch Orbit130
Epoch Day140.58334491
Epoch Year2022
RAAN285.0447
Inclination53.2159
Eccentricity0.0001494
Argument of Perigee62.4849
Mean Anonmoly304.0086
Mean Motion15.08829401
Decay Rate-0.00010063
L11 50819U 22001S 22140.58334491 -.00010063 00000+0 -61521-3 0 9993
L22 50819 53.2159 285.0447 0001494 62.4849 304.0086 15.08829401 1304

Live tracking and technical data element details for STARLINK-3327 (NORAD 50819). STARLINK-3327 can be tracked NOW for your location showing map with azimuth and elevation plus other details from your city location.

Track the satellite on the map from your city or location and see movement details for azimuth, elevation, latitude, longitude, range, height, and movement on the map or in text.







IsCatalogInMostPopularTable: catalog: 50819, numindb: 18
Update: records affected: 1



GetName: 50819 STARLINK-3327

Hit Count: updated at: Sun, 22 May 2022 04:06:30 GMT